• în Republica Moldova
  • Lista ţărilor
  • Pe 7 zile
  • Temperatura apei
  • Hartă satelitară
  • Meteo pe hartă
  • Widget-uri
  • user-avatar
    Intrare

    Meteo pe oră la Benguela

    Astăzi, 13 Decembrie, Miercuri

    Timp Temperatura Precipitaţii Vânt Presiune Umiditate
    00:00 +27°C° 0 mm 3 m/s 759 mmHg 86%
    01:00 +27°C° 0 mm 3 m/s 759 mmHg 86%
    02:00 +27°C° 0 mm 2 m/s 759 mmHg 86%
    03:00 +27°C° 0 mm 2 m/s 759 mmHg 87%
    04:00 +27°C° 0 mm 2 m/s 758 mmHg 87%
    05:00 +27°C° 0 mm 2 m/s 759 mmHg 87%
    06:00 +27°C° 0 mm 1 m/s 759 mmHg 87%
    07:00 +28°C° 0 mm 1 m/s 759 mmHg 85%
    08:00 +29°C° 0 mm 1 m/s 759 mmHg 79%
    09:00 +31°C° 0 mm 1 m/s 759 mmHg 72%
    10:00 +32°C° 0 mm 1 m/s 759 mmHg 65%
    11:00 +34°C° 0 mm 2 m/s 758 mmHg 61%
    12:00 +35°C° 0 mm 3 m/s 758 mmHg 56%
    13:00 +36°C° 0 mm 4 m/s 757 mmHg 52%
    14:00 +36°C° 0 mm 4 m/s 757 mmHg 54%
    15:00 +35°C° 0 mm 4 m/s 757 mmHg 56%
    16:00 +35°C° 0 mm 4 m/s 756 mmHg 58%
    17:00 +34°C° 0 mm 4 m/s 757 mmHg 63%
    18:00 +32°C° 0 mm 4 m/s 757 mmHg 69%
    19:00 +30°C° 0 mm 3 m/s 758 mmHg 75%
    20:00 +29°C° 0 mm 3 m/s 758 mmHg 76%
    21:00 +29°C° 0 mm 3 m/s 759 mmHg 78%
    22:00 +29°C° 0 mm 2 m/s 760 mmHg 79%
    23:00 +28°C° 0,1 mm 2 m/s 760 mmHg 80%

    Mâine, 14 Decembrie, Joi

    Timp Temperatura Precipitaţii Vânt Presiune Umiditate
    00:00 +28°C° 0,1 mm 2 m/s 759 mmHg 81%
    01:00 +28°C° 0,1 mm 2 m/s 759 mmHg 82%
    02:00 +28°C° 0,1 mm 2 m/s 759 mmHg 84%
    03:00 +28°C° 0,1 mm 2 m/s 759 mmHg 85%
    04:00 +28°C° 0,1 mm 2 m/s 759 mmHg 87%
    05:00 +28°C° 0,2 mm 2 m/s 759 mmHg 86%
    06:00 +28°C° 0,2 mm 2 m/s 759 mmHg 86%
    07:00 +28°C° 0,2 mm 1 m/s 759 mmHg 85%
    08:00 +29°C° 0 mm 2 m/s 759 mmHg 78%
    09:00 +31°C° 0 mm 2 m/s 759 mmHg 71%
    10:00 +32°C° 0 mm 2 m/s 759 mmHg 65%
    11:00 +34°C° 0 mm 2 m/s 759 mmHg 62%
    12:00 +35°C° 0 mm 3 m/s 758 mmHg 60%
    13:00 +35°C° 0 mm 3 m/s 758 mmHg 57%
    14:00 +34°C° 0 mm 4 m/s 757 mmHg 61%
    15:00 +34°C° 0 mm 4 m/s 757 mmHg 65%
    16:00 +33°C° 0 mm 4 m/s 756 mmHg 69%
    17:00 +31°C° 0 mm 3 m/s 757 mmHg 74%
    18:00 +29°C° 0 mm 3 m/s 757 mmHg 79%
    19:00 +28°C° 0 mm 3 m/s 757 mmHg 83%
    20:00 +28°C° 0 mm 3 m/s 758 mmHg 84%
    21:00 +28°C° 0 mm 3 m/s 758 mmHg 86%
    22:00 +28°C° 0 mm 3 m/s 758 mmHg 87%
    23:00 +27°C° 0 mm 2 m/s 758 mmHg 87%

    Poimâine, 15 Decembrie, Vineri

    Timp Temperatura Precipitaţii Vânt Presiune Umiditate
    00:00 +27°C° 0 mm 2 m/s 758 mmHg 88%
    01:00 +27°C° 0 mm 2 m/s 758 mmHg 88%
    02:00 +27°C° 0 mm 2 m/s 757 mmHg 88%
    03:00 +27°C° 0 mm 1 m/s 757 mmHg 88%
    04:00 +27°C° 0 mm 1 m/s 757 mmHg 88%
    05:00 +27°C° 0 mm 1 m/s 758 mmHg 86%
    06:00 +28°C° 0 mm 2 m/s 758 mmHg 84%
    07:00 +28°C° 0 mm 2 m/s 758 mmHg 81%
    08:00 +31°C° 0 mm 2 m/s 758 mmHg 72%
    09:00 +34°C° 0 mm 2 m/s 758 mmHg 63%
    10:00 +36°C° 0 mm 2 m/s 758 mmHg 54%
    11:00 +36°C° 0 mm 3 m/s 758 mmHg 53%
    12:00 +37°C° 0 mm 4 m/s 757 mmHg 51%
    13:00 +38°C° 0 mm 4 m/s 756 mmHg 50%
    14:00 +36°C° 0,1 mm 4 m/s 756 mmHg 55%
    15:00 +35°C° 0,1 mm 4 m/s 756 mmHg 60%
    16:00 +34°C° 0,1 mm 4 m/s 755 mmHg 65%
    17:00 +33°C° 0,2 mm 4 m/s 756 mmHg 69%
    18:00 +30°C° 0,2 mm 4 m/s 756 mmHg 73%
    19:00 +29°C° 0,2 mm 3 m/s 757 mmHg 77%
    20:00 +29°C° 0,3 mm 3 m/s 757 mmHg 78%
    21:00 +29°C° 0,3 mm 2 m/s 758 mmHg 78%
    22:00 +29°C° 0,3 mm 2 m/s 758 mmHg 78%
    23:00 +28°C° 0,1 mm 2 m/s 758 mmHg 79%

    16 Decembrie, Sâmbătă

    Timp Temperatura Precipitaţii Vânt Presiune Umiditate
    00:00 +28°C° 0,1 mm 1 m/s 758 mmHg 81%
    01:00 +28°C° 0,1 mm 1 m/s 757 mmHg 82%
    02:00 +28°C° 0 mm 1 m/s 757 mmHg 83%
    03:00 +27°C° 0 mm 1 m/s 757 mmHg 84%
    04:00 +25°C° 0 mm 0 m/s 757 mmHg 85%
    05:00 +28°C° 0 mm 1 m/s 757 mmHg 83%
    06:00 +28°C° 0 mm 1 m/s 758 mmHg 82%
    07:00 +28°C° 0 mm 1 m/s 758 mmHg 81%
    08:00 +30°C° 0 mm 1 m/s 758 mmHg 75%
    09:00 +31°C° 0 mm 2 m/s 758 mmHg 70%
    10:00 +32°C° 0 mm 2 m/s 758 mmHg 64%
    11:00 +33°C° 0 mm 3 m/s 758 mmHg 63%
    12:00 +34°C° 0 mm 3 m/s 757 mmHg 61%
    13:00 +34°C° 0 mm 4 m/s 756 mmHg 60%
    14:00 +34°C° 0 mm 4 m/s 756 mmHg 60%
    15:00 +34°C° 0 mm 4 m/s 755 mmHg 60%
    16:00 +33°C° 0 mm 4 m/s 755 mmHg 61%
    17:00 +32°C° 0 mm 4 m/s 756 mmHg 65%
    18:00 +30°C° 0 mm 3 m/s 756 mmHg 70%
    19:00 +29°C° 0 mm 3 m/s 757 mmHg 74%
    20:00 +29°C° 0,1 mm 3 m/s 757 mmHg 75%
    21:00 +28°C° 0,1 mm 2 m/s 758 mmHg 76%
    22:00 +28°C° 0,1 mm 2 m/s 758 mmHg 78%
    23:00 +28°C° 0,2 mm 2 m/s 758 mmHg 79%

    17 Decembrie, Duminică

    Timp Temperatura Precipitaţii Vânt Presiune Umiditate
    00:00 +28°C° 0,2 mm 1 m/s 758 mmHg 80%
    01:00 +27°C° 0,2 mm 1 m/s 758 mmHg 82%
    02:00 +27°C° 0,2 mm 1 m/s 757 mmHg 83%
    03:00 +27°C° 0,2 mm 1 m/s 757 mmHg 83%
    04:00 +27°C° 0,2 mm 1 m/s 757 mmHg 84%
    05:00 +27°C° 0,1 mm 1 m/s 757 mmHg 83%
    06:00 +28°C° 0,1 mm 1 m/s 758 mmHg 83%
    07:00 +28°C° 0,1 mm 1 m/s 758 mmHg 82%
    08:00 +29°C° 0 mm 1 m/s 758 mmHg 77%
    09:00 +30°C° 0 mm 2 m/s 759 mmHg 73%
    10:00 +31°C° 0 mm 2 m/s 759 mmHg 68%
    11:00 +31°C° 0,1 mm 2 m/s 758 mmHg 67%
    12:00 +31°C° 0,1 mm 3 m/s 758 mmHg 65%
    13:00 +33°C° 0,1 mm 3 m/s 757 mmHg 63%
    14:00 +31°C° 0 mm 3 m/s 757 mmHg 66%
    15:00 +31°C° 0 mm 3 m/s 757 mmHg 68%
    16:00 +30°C° 0 mm 3 m/s 756 mmHg 70%
    17:00 +30°C° 0 mm 3 m/s 757 mmHg 73%
    18:00 +29°C° 0 mm 3 m/s 757 mmHg 76%
    19:00 +28°C° 0 mm 3 m/s 758 mmHg 79%
    20:00 +28°C° 0 mm 3 m/s 758 mmHg 79%
    21:00 +28°C° 0 mm 3 m/s 758 mmHg 79%
    22:00 +28°C° 0 mm 3 m/s 759 mmHg 79%
    23:00 +28°C° 0 mm 3 m/s 758 mmHg 79%

    18 Decembrie, Luni

    Timp Temperatura Precipitaţii Vânt Presiune Umiditate
    00:00 +28°C° 0 mm 2 m/s 758 mmHg 79%
    01:00 +28°C° 0 mm 2 m/s 758 mmHg 78%
    02:00 +28°C° 0 mm 2 m/s 757 mmHg 79%
    03:00 +28°C° 0 mm 2 m/s 757 mmHg 79%
    04:00 +27°C° 0 mm 2 m/s 757 mmHg 79%
    05:00 +28°C° 0 mm 2 m/s 757 mmHg 79%
    06:00 +28°C° 0 mm 2 m/s 758 mmHg 78%
    07:00 +28°C° 0 mm 2 m/s 758 mmHg 77%
    08:00 +29°C° 0 mm 2 m/s 758 mmHg 72%
    09:00 +31°C° 0 mm 2 m/s 758 mmHg 68%
    10:00 +32°C° 0 mm 2 m/s 758 mmHg 63%
    11:00 +33°C° 0 mm 3 m/s 758 mmHg 64%
    12:00 +33°C° 0 mm 3 m/s 757 mmHg 65%
    13:00 +33°C° 0 mm 4 m/s 757 mmHg 66%
    14:00 +33°C° 0 mm 4 m/s 756 mmHg 66%
    15:00 +33°C° 0 mm 4 m/s 756 mmHg 67%
    16:00 +32°C° 0 mm 4 m/s 756 mmHg 67%
    17:00 +30°C° 0 mm 4 m/s 756 mmHg 72%
    18:00 +29°C° 0 mm 3 m/s 757 mmHg 77%
    19:00 +28°C° 0 mm 3 m/s 757 mmHg 83%
    20:00 +27°C° 0 mm 2 m/s 758 mmHg 84%
    21:00 +27°C° 0 mm 2 m/s 758 mmHg 86%
    22:00 +26°C° 0 mm 2 m/s 758 mmHg 88%
    23:00 +26°C° 0 mm 2 m/s 758 mmHg 88%
    Arată mai mult